This is the latest recevied weather packets stored in our database for station/object OH7GGX-14. If no packets are shown the sender has not sent any weather packets the latest 10 day(s).
| Time | Temp. | Humidity | Pressure | Rain* | Wind** | Luminosity | Snow |
|---|---|---|---|---|---|---|---|
| 1777714901 | 18.89° C | 32% | 1010.2 hPa | 0 mm | - | - | - |
| 1777714301 | 18.33° C | 33% | 1010.3 hPa | 0 mm | - | - | - |
| 1777713701 | 18.33° C | 36% | 1010.5 hPa | 0 mm | - | - | - |
| 1777713101 | 17.78° C | 37% | 1010.5 hPa | 0 mm | - | - | - |
| 1777712501 | 17.78° C | 38% | 1010.7 hPa | 0 mm | - | - | - |
| 1777711901 | 17.22° C | 39% | 1010.8 hPa | 0 mm | - | - | - |
| 1777711301 | 17.22° C | 40% | 1010.9 hPa | 0 mm | - | - | - |
| 1777710701 | 16.67° C | 42% | 1011 hPa | 0 mm | - | - | - |
| 1777710101 | 16.67° C | 43% | 1011.1 hPa | 0 mm | - | - | - |
| 1777709501 | 16.11° C | 45% | 1011.3 hPa | 0 mm | - | - | - |
| 1777708901 | 16.11° C | 45% | 1011.4 hPa | 0 mm | - | - | - |
| 1777708301 | 15.56° C | 47% | 1011.5 hPa | 0 mm | - | - | - |
| 1777707701 | 15.56° C | 48% | 1011.6 hPa | 0 mm | - | - | - |
| 1777707101 | 15° C | 48% | 1011.7 hPa | 0 mm | - | - | - |
| 1777706501 | 15° C | 49% | 1011.7 hPa | 0 mm | - | - | - |
| 1777705901 | 14.44° C | 55% | 1011.7 hPa | 0 mm | - | - | - |
| 1777705301 | 13.89° C | 58% | 1011.7 hPa | 0 mm | - | - | - |
| 1777704701 | 13.89° C | 62% | 1011.7 hPa | 0 mm | - | - | - |
| 1777704101 | 13.33° C | 65% | 1011.8 hPa | 0 mm | - | - | - |
| 1777703501 | 12.78° C | 69% | 1011.9 hPa | 0 mm | - | - | - |
| 1777702901 | 12.22° C | 73% | 1011.8 hPa | 0 mm | - | - | - |
| 1777702301 | 11.11° C | 78% | 1011.8 hPa | 0 mm | - | - | - |
| 1777701701 | 10.56° C | 85% | 1011.9 hPa | 0 mm | - | - | - |
| 1777701101 | 10° C | 91% | 1011.9 hPa | 0 mm | - | - | - |
| 1777700501 | 8.89° C | 95% | 1012.1 hPa | 0 mm | - | - | - |
* Rain latest hour (hover to see other rain measurements)
** Current wind speed in m/s (hover to see current wind gust speed)